Back to catalog

COSMOS 839 DEB

AliveUNKNOWN
NORAD 10453·DEBRIS·🇷🇺 Russia

Launched Jul 8, 1976 from Plesetsk Cosmodrome

Loading…

Next Passes (next 24 hours)

TLE

FreshSource: Space-Track

Epoch: Sep 14, 2026, 03:02 UTC

1 10453U 76067AE  26257.12700613 -.00000110  00000-0 -14958-3 0  9995
2 10453  65.8117 147.7061 0727041 273.6756 244.8659 12.42566312274571

Track COSMOS 839 DEB in real time with AllMySat

Download on the App Store